Wind_Speed
31 32 31 31 32 32 33 34 34 35 37 36 34 33 33 33 33 33 33 33 33 32 31 28 27 26 25 23 23 23 23 24 25 24 23 22 21 19 18 18 20 20
31 32 32 31 32 32 33 34 35 35 37 37 36 36 35 33 33 35 34 34 34 33 31 29 28 28 26 24 23 22 23 25 26 25 24 22 22 20 20 20 21 20
29 30 31 31 32 32 33 35 36 36 37 39 38 38 37 35 34 35 36 35 35 34 32 30 29 28 26 25 24 23 24 26 27 26 24 22 22 21 21 22 22 21
28 29 30 31 31 32 33 36 37 38 39 40 40 39 38 36 36 36 35 35 36 35 33 30 29 28 28 28 27 25 26 27 27 26 24 23 23 23 23 23 23 22
28 29 30 31 31 32 34 36 37 38 39 41 42 40 38 37 37 37 34 33 35 35 33 31 29 28 28 28 27 27 27 27 26 26 25 24 24 24 25 25 24 24
29 29 30 31 31 32 34 36 37 37 38 40 41 40 39 38 38 37 34 31 33 34 32 30 29 29 29 28 27 27 26 26 26 27 27 26 26 26 26 26 26 25
30 29 29 30 31 32 34 36 37 37 36 38 39 38 38 38 37 37 34 31 31 32 31 30 30 31 30 29 27 27 26 26 27 27 28 28 28 28 28 27 27 26
29 29 29 29 30 30 31 33 35 36 36 36 35 36 37 37 36 36 34 31 32 32 30 31 31 31 31 30 27 26 27 27 27 27 28 28 28 28 28 28 27 26
29 29 29 29 29 30 30 31 32 34 36 35 33 33 34 34 34 35 33 31 31 31 30 30 30 31 31 30 27 27 27 27 28 29 29 28 28 28 27 27 27 26
28 29 29 29 29 30 30 31 31 32 34 36 33 31 31 32 33 33 32 31 31 32 32 33 31 31 31 29 27 26 28 28 29 30 30 28 28 27 27 27 27 26
27 28 29 29 29 30 30 31 31 31 32 34 33 30 30 31 32 33 33 32 31 31 32 32 31 31 30 28 26 27 29 30 31 30 29 28 27 27 27 27 27 27
27 28 30 30 30 31 31 31 31 31 31 31 31 30 30 32 32 32 34 34 31 31 32 31 31 31 29 26 26 28 30 31 32 30 29 28 27 27 27 27 28 28
28 30 31 31 30 31 32 32 32 32 30 28 27 29 30 32 33 32 34 34 32 32 33 32 33 32 28 26 27 29 32 32 32 30 29 28 28 28 28 28 28 28
30 31 32 32 31 32 33 33 32 32 31 25 23 27 30 32 33 34 35 34 32 33 32 31 31 31 28 26 28 30 32 33 31 30 29 29 29 29 28 28 28 28
31 32 32 33 32 32 33 33 32 32 31 25 21 24 29 32 34 34 33 32 31 32 31 29 29 30 29 27 29 31 32 32 31 29 29 29 29 29 28 28 28 29
32 32 32 33 33 32 33 33 32 31 31 28 21 20 25 29 31 31 30 30 30 29 29 29 29 31 30 29 30 32 32 31 31 30 30 30 29 28 27 28 29 30
31 31 32 33 33 33 32 33 32 31 30 29 24 18 20 23 26 27 27 27 27 27 29 30 31 32 32 30 31 32 33 32 32 31 31 30 29 28 27 28 29 30
31 31 31 32 32 32 32 32 32 31 29 28 25 19 19 22 22 24 25 25 25 26 29 30 31 33 34 32 31 32 33 33 32 32 31 30 30 29 29 29 30 31
33 32 31 31 31 31 31 32 32 31 30 28 26 22 19 23 25 25 24 24 25 26 28 31 32 33 34 32 31 32 33 32 32 32 32 31 31 30 30 30 30 31
33 33 32 32 31 30 30 31 32 32 31 29 27 24 20 21 26 29 28 27 27 28 29 30 32 34 34 33 33 33 34 33 33 33 32 32 32 32 32 32 31 31
33 33 33 32 32 31 30 30 31 32 32 31 29 27 24 21 22 27 30 31 31 30 30 31 32 33 35 34 34 35 35 34 34 34 34 33 33 33 34 34 33 32
35 34 33 32 32 32 31 30 30 31 32 32 31 29 27 25 23 23 26 30 32 33 32 32 32 33 35 36 36 37 36 35 35 35 35 35 35 35 35 35 35 34
38 37 36 35 34 34 33 32 31 31 31 32 33 31 30 28 26 25 24 25 29 33 33 32 32 34 36 37 38 38 38 36 35 36 37 36 36 36 36 36 36 36
39 39 38 38 37 36 36 36 34 32 31 32 33 33 33 31 29 28 26 24 26 30 32 33 34 35 36 37 39 39 39 38 38 38 38 38 37 37 36 35 36 38
39 39 38 39 38 38 37 38 38 36 33 32 33 33 34 34 32 30 29 28 28 29 31 33 34 34 35 37 39 40 40 40 41 41 40 39 40 41 40 38 38 39
41 41 41 41 41 39 38 38 39 39 37 35 34 34 34 35 35 33 32 32 31 31 31 33 34 33 34 36 38 39 40 41 42 43 43 44 44 46 47 45 42 40
Wind_Direction
282 282 282 283 284 284 284 284 283 282 280 277 273 271 270 270 269 267 264 261 261 263 261 256 251 249 249 250 249 250 253 252 248 243 239 239 238 235 233 229 229 232
283 284 285 285 285 285 284 283 282 281 281 278 274 269 268 269 269 267 265 262 261 260 258 253 249 246 245 248 249 249 251 250 247 244 241 237 234 233 232 230 231 233
285 286 287 288 288 288 286 284 282 281 280 279 276 272 268 266 267 268 265 261 257 256 255 251 247 245 241 241 245 246 247 247 245 244 241 236 236 237 233 231 231 230
286 287 287 288 288 288 286 284 282 279 277 277 276 274 270 266 264 266 267 263 254 250 251 250 247 245 241 238 240 241 243 245 244 243 241 238 237 236 233 233 232 231
284 284 285 286 288 289 288 286 283 280 278 277 276 275 272 267 262 263 267 263 251 246 248 248 247 245 241 238 237 237 239 242 245 245 242 239 236 235 235 235 235 235
283 284 285 288 291 293 293 291 287 284 282 280 278 275 272 269 264 261 264 260 247 243 245 245 245 243 240 237 236 236 237 239 241 242 241 239 237 236 237 237 238 239
283 284 287 290 293 295 294 293 290 288 285 283 280 275 271 269 265 261 261 257 244 238 241 243 242 242 240 237 236 236 236 236 237 239 239 239 237 237 238 239 240 241
284 286 289 291 294 296 295 293 292 291 289 284 279 273 269 268 264 260 259 254 242 236 239 241 240 240 240 238 236 236 236 236 236 237 238 239 239 239 240 240 241 241
287 289 291 294 297 299 297 294 293 293 291 285 277 270 266 263 260 257 255 250 242 236 237 239 239 240 241 239 238 238 238 238 237 236 237 238 239 240 241 242 243 243
288 290 292 295 298 300 300 297 295 295 292 285 277 269 262 258 257 255 251 247 244 238 236 239 241 241 241 239 238 239 241 240 238 237 237 239 240 241 243 245 246 247
290 292 294 296 299 300 302 301 300 299 294 285 276 267 259 254 253 251 247 244 242 238 235 237 240 240 240 239 238 239 241 240 239 240 240 240 242 243 245 246 249 250
291 294 296 299 301 302 303 304 304 302 299 287 272 262 256 251 250 248 241 237 237 237 235 236 238 239 238 238 239 240 241 240 240 241 242 243 245 246 246 248 250 252
291 294 296 299 302 303 304 306 307 305 303 292 274 263 256 250 248 243 234 231 236 238 237 239 242 241 238 238 241 243 242 242 242 242 244 246 247 248 248 248 250 251
290 293 295 298 300 302 304 306 309 309 306 297 278 266 257 248 245 238 227 227 234 234 234 238 240 240 240 240 243 245 244 243 243 244 247 248 248 249 249 250 251 251
290 291 293 296 298 301 303 305 309 310 308 301 282 263 252 243 240 233 224 226 233 233 232 233 234 237 239 241 243 246 246 244 244 246 247 247 247 248 249 250 252 252
287 288 290 293 296 298 301 304 307 310 309 306 294 266 246 236 231 227 225 229 234 234 231 230 233 237 238 239 243 245 245 244 246 247 247 246 245 246 247 249 251 252
285 286 287 290 292 295 298 301 304 308 309 309 304 276 246 236 230 226 227 231 235 235 232 231 235 239 238 238 242 245 244 245 246 247 247 246 245 245 247 249 251 252
283 284 284 287 289 292 294 297 300 304 306 308 307 288 252 239 234 231 233 237 239 238 235 233 236 238 238 238 241 244 245 245 246 246 246 245 245 245 246 248 251 253
282 282 282 284 286 289 291 294 296 299 301 302 305 299 267 242 235 232 234 239 243 242 238 235 236 237 237 238 240 243 245 244 245 245 245 245 245 245 246 247 250 252
281 281 280 280 282 285 288 291 292 294 296 296 298 300 287 258 240 235 234 237 242 245 244 241 239 238 239 239 239 241 244 245 244 244 245 245 245 245 245 247 249 251
280 280 279 278 279 282 284 286 288 289 291 292 293 294 293 281 258 244 239 238 239 242 245 247 245 242 241 241 240 240 243 246 246 246 245 245 245 246 246 246 247 249
278 277 277 277 278 279 280 281 283 284 285 287 288 289 289 288 280 264 249 241 239 241 243 246 249 247 244 243 241 240 241 244 247 248 248 247 246 246 246 247 248 248
276 275 275 276 276 278 279 279 278 278 279 280 282 284 284 284 283 280 269 254 246 244 243 241 244 246 246 245 244 242 242 243 246 248 249 248 247 246 246 248 250 250
275 275 275 275 275 275 277 278 278 275 274 274 275 277 279 280 279 279 278 270 259 253 249 245 242 243 245 245 245 245 245 244 244 246 247 247 245 243 245 250 254 254
274 275 275 275 275 275 274 275 276 276 273 271 270 271 272 274 276 276 275 273 267 260 256 252 250 248 247 247 247 247 248 246 245 245 246 247 244 242 247 255 258 255
273 274 275 275 276 276 275 273 273 274 273 271 268 267 267 268 270 271 271 271 270 267 263 259 257 255 253 251 249 249 250 249 248 247 247 247 246 247 253 259 259 254
Height
5785 5784 5783 5783 5782 5781 5780 5778 5777 5776 5774 5774 5773 5772 5772 5771 5771 5771 5771 5772 5773 5773 5774 5775 5775 5776 5776 5777 5778 5779 5780 5781 5781 5781 5782 5782 5783 5784 5785 5786 5785 5785
5782 5780 5780 5779 5778 5777 5775 5774 5773 5772 5770 5769 5769 5768 5768 5768 5767 5766 5767 5768 5769 5769 5770 5771 5772 5773 5773 5773 5774 5776 5776 5777 5778 5778 5779 5780 5780 5781 5783 5783 5783 5783
5778 5777 5776 5775 5774 5773 5771 5769 5768 5767 5766 5764 5763 5763 5763 5764 5763 5763 5763 5764 5765 5765 5766 5767 5768 5769 5770 5770 5771 5772 5773 5773 5774 5775 5776 5777 5778 5778 5780 5780 5781 5781
5775 5774 5772 5771 5770 5769 5767 5765 5764 5763 5761 5759 5758 5758 5759 5760 5759 5759 5759 5759 5760 5760 5761 5762 5764 5765 5766 5767 5767 5768 5769 5770 5771 5773 5774 5775 5775 5776 5777 5778 5778 5779
5772 5770 5769 5768 5767 5765 5763 5761 5759 5758 5757 5755 5753 5753 5754 5755 5755 5755 5755 5755 5755 5755 5757 5759 5760 5761 5762 5763 5764 5765 5766 5767 5769 5770 5771 5772 5773 5774 5774 5775 5776 5777
5769 5767 5765 5764 5763 5761 5758 5756 5755 5753 5752 5750 5749 5749 5749 5750 5750 5751 5751 5751 5750 5751 5753 5755 5756 5757 5758 5759 5760 5761 5762 5764 5765 5766 5767 5768 5769 5770 5771 5772 5773 5774
5765 5763 5762 5760 5759 5757 5754 5752 5750 5749 5747 5746 5745 5745 5745 5745 5746 5746 5747 5747 5747 5748 5749 5751 5752 5753 5754 5755 5756 5757 5759 5760 5762 5763 5764 5765 5766 5767 5768 5769 5771 5772
5761 5759 5758 5756 5755 5753 5751 5748 5746 5744 5743 5742 5741 5740 5740 5741 5741 5742 5743 5744 5744 5745 5746 5748 5748 5749 5751 5752 5753 5754 5755 5757 5758 5759 5760 5762 5763 5764 5766 5767 5768 5769
5757 5755 5754 5752 5751 5749 5747 5745 5743 5741 5739 5738 5737 5736 5736 5736 5737 5738 5739 5740 5741 5743 5744 5744 5744 5746 5747 5748 5750 5751 5753 5754 5755 5756 5757 5758 5760 5762 5763 5765 5766 5767
5753 5751 5750 5748 5747 5745 5743 5742 5740 5738 5735 5733 5732 5732 5732 5732 5732 5733 5735 5737 5738 5740 5741 5741 5741 5742 5744 5745 5747 5748 5750 5751 5752 5753 5755 5756 5757 5759 5760 5762 5763 5763
5749 5748 5746 5745 5743 5741 5740 5738 5736 5734 5732 5729 5728 5727 5727 5728 5728 5729 5731 5732 5734 5736 5737 5737 5738 5739 5741 5742 5743 5745 5747 5749 5750 5751 5752 5753 5754 5755 5757 5758 5759 5760
5746 5744 5742 5741 5739 5737 5735 5734 5732 5730 5728 5725 5723 5723 5723 5724 5725 5726 5728 5728 5730 5732 5733 5734 5735 5736 5738 5738 5740 5742 5744 5745 5747 5748 5749 5750 5751 5752 5753 5755 5756 5757
5742 5741 5739 5737 5735 5733 5731 5729 5727 5726 5724 5721 5719 5719 5719 5720 5721 5723 5724 5726 5729 5730 5731 5732 5732 5733 5734 5735 5737 5739 5741 5742 5744 5745 5746 5747 5748 5749 5750 5751 5752 5753
5738 5737 5735 5733 5732 5730 5727 5726 5724 5721 5719 5718 5716 5715 5716 5716 5718 5719 5721 5723 5727 5728 5729 5730 5730 5730 5731 5732 5734 5736 5737 5739 5740 5742 5743 5744 5745 5746 5747 5748 5749 5750
5735 5733 5731 5729 5728 5726 5724 5722 5721 5719 5717 5715 5713 5712 5712 5712 5714 5716 5718 5721 5723 5725 5726 5728 5728 5727 5728 5729 5731 5733 5734 5735 5736 5738 5739 5740 5741 5742 5743 5744 5745 5746
5731 5730 5728 5726 5724 5723 5722 5720 5718 5717 5715 5712 5710 5709 5708 5709 5710 5713 5716 5719 5720 5722 5724 5725 5725 5725 5725 5725 5727 5729 5730 5731 5732 5733 5735 5736 5737 5738 5739 5740 5741 5742
5728 5727 5725 5723 5721 5720 5719 5717 5716 5714 5713 5710 5708 5707 5707 5707 5709 5711 5714 5716 5717 5720 5721 5722 5723 5723 5722 5722 5724 5726 5727 5727 5728 5730 5731 5732 5733 5734 5735 5737 5738 5739
5725 5724 5722 5720 5718 5717 5715 5715 5714 5712 5711 5709 5707 5706 5706 5707 5708 5709 5711 5712 5714 5715 5717 5718 5719 5718 5718 5719 5720 5722 5723 5724 5725 5726 5727 5728 5729 5730 5731 5733 5735 5736
5721 5720 5719 5717 5715 5714 5712 5711 5710 5710 5709 5707 5706 5705 5705 5705 5706 5706 5707 5708 5710 5711 5711 5712 5712 5712 5713 5715 5717 5718 5719 5720 5721 5722 5723 5724 5725 5726 5728 5729 5731 5732
5716 5716 5715 5714 5713 5711 5709 5708 5707 5706 5706 5705 5704 5703 5703 5703 5703 5704 5704 5705 5706 5706 5707 5708 5707 5707 5709 5711 5713 5715 5716 5717 5718 5719 5720 5720 5721 5722 5724 5726 5727 5728
5712 5711 5711 5710 5709 5708 5707 5705 5704 5703 5702 5702 5701 5701 5700 5700 5700 5700 5701 5701 5702 5703 5703 5703 5704 5705 5706 5708 5710 5711 5712 5713 5714 5715 5715 5716 5717 5718 5720 5721 5723 5725
5708 5707 5706 5706 5705 5704 5703 5702 5701 5700 5699 5698 5698 5698 5697 5697 5697 5697 5697 5698 5698 5699 5699 5700 5701 5701 5702 5704 5706 5707 5708 5709 5710 5711 5712 5712 5713 5715 5716 5717 5719 5721
5703 5702 5701 5701 5701 5700 5699 5698 5698 5697 5696 5695 5694 5694 5694 5694 5694 5693 5694 5694 5695 5695 5695 5696 5696 5697 5698 5699 5701 5702 5704 5705 5706 5707 5708 5709 5710 5711 5712 5713 5715 5716
5698 5697 5697 5696 5696 5695 5694 5694 5693 5693 5693 5692 5691 5690 5690 5690 5690 5690 5690 5691 5691 5691 5691 5692 5692 5692 5694 5695 5696 5698 5699 5701 5702 5703 5704 5705 5706 5707 5708 5709 5710 5711
5692 5691 5691 5691 5691 5690 5690 5689 5688 5688 5688 5688 5687 5687 5686 5686 5686 5686 5686 5686 5687 5687 5687 5687 5687 5688 5689 5690 5691 5692 5694 5696 5697 5698 5699 5700 5701 5702 5703 5704 5705 5706
5687 5686 5686 5685 5685 5685 5685 5684 5684 5683 5682 5683 5682 5682 5682 5682 5682 5682 5681 5682 5682 5682 5683 5683 5683 5683 5684 5685 5686 5687 5688 5690 5691 5692 5694 5695 5695 5696 5697 5698 5700 5701